Sioux City, IA

7:13 AM CST on January 22, 2018 (GMT -0600)
Sioux Gateway

Weather History for KSUX - July, 2014

Change the Weather History Date:

Monday, July 7, 2014

  Actual Average Record
Temperature  
Mean Temperature 73 °F 74 °F  
Max Temperature 84 °F 86 °F 106 °F (1980)
Min Temperature 62 °F 63 °F 47 °F (1934)
Degree Days  
Heating Degree Days 0 0  
Month to date heating degree days 2 0  
Since 1 June heating degree days 22 27  
Since 1 July heating degree days 2 0  
Cooling Degree Days 8 10  
Month to date cooling degree days 42 64  
Year to date cooling degree days 358 316  
Since 1 June cooling degree days 237 252  
Growing Degree Days 23 (Base 50)    
Moisture  
Dew Point 65 °F    
Average Humidity 79    
Maximum Humidity 100    
Minimum Humidity 58    
Precipitation  
Precipitation 0.01 in 0.12 in 1.35 in (1938)
Month to date precipitation 0.42 0.80  
Year to date precipitation 22.32 14.67  
Snow  
Snow 0.00 in 0.00 in 0.00 in ()
Month to date snowfall 0.0 0.0  
Since 1 June snowfall 0.0 0.0  
Since 1 July snowfall 0.0 0.0  
Snow Depth 0.00 in    
Sea Level Pressure  
Sea Level Pressure 29.81 in    
Wind  
Wind Speed 6 mph (West)    
Max Wind Speed 20 mph    
Max Gust Speed 26 mph    
Visibility 10 miles    
Events Rain    
T = Trace of Precipitation, MM = Missing Value Source: NWS Daily Summary

Daily Weather History Graph

Daily Weather History Graph

Search for Another Location

Airport or City:

Trip Planner

Search our weather history database for the weather conditions in past years. The results will help you decide how hot, cold, wet, or windy it might be!

Date:

Astronomy

Jul. 07, 2014 Rise Set
Actual Time 5:55 AM CDT 9:04 PM CDT
Civil Twilight 5:21 AM CDT 9:38 PM CDT
Nautical Twilight 4:37 AM CDT 10:22 PM CDT
Astronomical Twilight 3:44 AM CDT 11:15 PM CDT
Moon 4:05 PM CDT (7/7) 1:53 AM CDT (7/7)
Length of Visible Light 16h 17m
Length of Day
15h 08m
Waxing Gibbous, 72% of the Moon is Illuminated
Jul 7
Waxing Gibbous
Jul 12
Full
Jul 18
Last Quarter
Jul 26
New
Aug 3
First Quarter

Hourly Weather History & Observations

Time (CDT) Temp. Heat Index Dew Point Humidity Pressure Visibility Wind Dir Wind Speed Gust Speed Precip Events Conditions
12:52 AM 66.9 °F - 64.0 °F 90% 29.84 in 10.0 mi West 4.6 mph - N/A   Clear
1:52 AM 66.9 °F - 63.0 °F 87% 29.84 in 10.0 mi WNW 4.6 mph - N/A   Clear
2:52 AM 66.9 °F - 63.0 °F 87% 29.83 in 10.0 mi WNW 3.5 mph - N/A   Clear
3:52 AM 64.0 °F - 62.1 °F 93% 29.83 in 10.0 mi West 3.5 mph - N/A   Clear
4:52 AM 64.4 °F - 62.6 °F 94% 29.84 in 10.0 mi Calm Calm - N/A   Clear
5:52 AM 63.0 °F - 62.1 °F 97% 29.81 in 10.0 mi Calm Calm - N/A   Clear
6:52 AM 66.0 °F - 63.0 °F 90% 29.83 in 10.0 mi Calm Calm - N/A   Clear
7:52 AM 70.0 °F - 64.9 °F 84% 29.84 in 10.0 mi Calm Calm - N/A   Clear
8:52 AM 73.9 °F - 66.9 °F 79% 29.83 in 10.0 mi Calm Calm - N/A   Clear
9:52 AM 79.0 °F - 69.1 °F 72% 29.83 in 10.0 mi Calm Calm - N/A   Clear
10:52 AM 82.9 °F 87.0 °F 70.0 °F 65% 29.83 in 10.0 mi West 4.6 mph - N/A   Clear
11:52 AM 84.0 °F 87.0 °F 68.0 °F 58% 29.84 in 10.0 mi WNW 6.9 mph - N/A   Clear
12:52 PM 81.0 °F 84.4 °F 70.0 °F 69% 29.83 in 10.0 mi SW 5.8 mph - N/A   Mostly Cloudy
1:52 PM 79.0 °F - 66.9 °F 66% 29.82 in 10.0 mi West 8.1 mph - N/A   Scattered Clouds
2:28 PM 77.0 °F - 68.0 °F 74% 29.83 in 7.0 mi Variable 3.5 mph - 0.00 in Rain Light Rain
2:52 PM 75.9 °F - 69.1 °F 79% 29.80 in 10.0 mi SSW 6.9 mph - 0.01 in   Partly Cloudy
3:52 PM 78.1 °F - 66.9 °F 68% 29.79 in 10.0 mi SW 11.5 mph - N/A   Clear
4:52 PM 80.1 °F 81.7 °F 64.0 °F 58% 29.75 in 10.0 mi SW 11.5 mph 21.9 mph N/A   Clear
5:52 PM 82.0 °F 84.5 °F 66.9 °F 60% 29.75 in 10.0 mi NW 10.4 mph - N/A   Clear
6:52 PM 81.0 °F 83.0 °F 66.0 °F 60% 29.74 in 10.0 mi WNW 6.9 mph - N/A   Clear
7:52 PM 79.0 °F - 66.9 °F 66% 29.76 in 10.0 mi West 6.9 mph - N/A   Clear
8:52 PM 78.1 °F - 66.9 °F 68% 29.75 in 10.0 mi WNW 9.2 mph - N/A   Partly Cloudy
9:52 PM 77.0 °F - 62.1 °F 60% 29.75 in 10.0 mi North 18.4 mph 25.3 mph N/A   Clear
10:52 PM 73.9 °F - 60.1 °F 62% 29.79 in 10.0 mi North 11.5 mph - N/A   Clear
11:52 PM 71.1 °F - 61.0 °F 70% 29.78 in 10.0 mi NNW 9.2 mph - N/A   Clear